User: anonymous   Login
Location: Nairn
(57.5833°N, 3.8667°W)
Time: 05:22:23
(UTC+00:00)
Language:

deb Explorer IX - Orbit

View from above orbital plane
View from above orbital plane
View from above satellite
View from above satellite

Ground track
Ground track

The orbit data is extracted from the following two-line orbital elements,

1 00085U 61004C   21208.08783190  .00004543  00000-0  97121-3 0  9992
2 00085  38.7686 114.6013 0383633 317.7956  39.3843 14.21942321988681
Epoch (UTC): 27 July 2021 02:06:28
Eccentricity: 0.0383633
inclination: 38.7686°
perigee height: 542 km
apogee height: 1095 km
right ascension of ascending node: 114.6013°
argument of perigee: 317.7956°
revolutions per day: 14.21942321
mean anomaly at epoch: 39.3843°
orbit number at epoch: 98868

The dashed part of the orbit path shows where the satellite is in the earth's shadow,  

DLR